Terminal Aerodrome Forecast
Issued by NWS Rapid City, SD

Home | Current Version | Previous Version | Graphics & Text | Print | Product List | Glossary On
Versions: 1 2 3 4 5 6 7 8 9 10 11 12 13 14 15 16 17 18 19
000
FTUS43 KUNR 172326
TAFRAP
TAF
KRAP 172326Z 1800/1824 36006KT P6SM SCT025 OVC050
     FM180600 33019KT P6SM SCT100
     FM182200 33006KT P6SM SCT250=

USA.gov is the U.S. government's official web portal to all federal, state and local government web resources and services.